Overview Statistics Trail Chart Weather Telemetry Raw packets
 

This is the latest recevied weather packets stored in our database for station/object DJ2KUA-6. If no packets are shown the sender has not sent any weather packets the latest 10 day(s).

<< 10 11 12 13 14 15 16 >>
Time Temp. Humidity Pressure Rain* Wind** Luminosity Snow
1788280858 25° C 49% 1073 hPa 0 mm - - -
1788279721 25.56° C 48% 1073 hPa 0 mm - - -
1788278578 25.56° C 49% 1073 hPa 0 mm - - -
1788277440 25° C 50% 1073 hPa 0 mm - - -
1788276299 25.56° C 48% 1073 hPa 0 mm - - -
1788275159 27.22° C 45% 1073 hPa 0 mm - - -
1788274019 27.78° C 45% 1073 hPa 0 mm - - -
1788271738 26.11° C 47% 1073 hPa 0 mm - - -
1788270600 26.11° C 46% 1073 hPa 0 mm - - -
1788269458 26.67° C 46% 1073 hPa 0 mm - - -
1788267180 26.11° C 48% 1073 hPa 0 mm - - -
1788266039 26.11° C 48% 1074 hPa 0 mm - - -
1788264900 26.11° C 49% 1074 hPa 0 mm - - -
1788263759 25.56° C 51% 1074 hPa 0 mm - - -
1788262618 25° C 53% 1074 hPa 0 mm - - -
1788261480 23.89° C 51% 1074 hPa 0 mm - - -
1788260338 25° C 55% 1074 hPa 0 mm - - -
1788259199 24.44° C 58% 1074 hPa 0 mm - - -
1788258059 23.89° C 59% 1074 hPa 0 mm - - -
1788256929 23.89° C 61% 1074 hPa 0 mm - - -
1788255779 23.33° C 63% 1074 hPa 0 mm - - -
1788253499 22.22° C 66% 1074 hPa 0 mm - - -
1788252359 22.22° C 66% 1074 hPa 0 mm - - -
1788251218 22.22° C 69% 1074 hPa 0 mm - - -
1788250080 21.11° C 73% 1074 hPa 0 mm - - -

* Rain latest hour (hover to see other rain measurements)
** Current wind speed in m/s (hover to see current wind gust speed)